IRIDIUM 14 [+] (25777 NORAD) Tracking and Keplerian Element Data

This shows tracking and keplerian element data for the satellite.

Feedback or suggestion? Click here.




ElementValue
Catalog25777
NameIRIDIUM 14 [+]
Epoch Orbit3286
Epoch Day348.90623411
Epoch Year2018
RAAN355.8911
Inclination86.4229
Eccentricity0.0002357
Argument of Perigee76.8316
Mean Anonmoly283.3145
Mean Motion14.3860541
Decay Rate-5.2E-07
L11 25777U 99032A 18348.90623411 -.00000052 00000-0 -23386-4 0 9996
L22 25777 86.4229 355.8911 0002357 76.8316 283.3145 14.38605410 32868

Live tracking and technical data element details for IRIDIUM 14 [+] (NORAD 25777). IRIDIUM 14 [+] can be tracked NOW for your location showing map with azimuth and elevation plus other details from your city location.

Track the satellite on the map from your city or location and see movement details for azimuth, elevation, latitude, longitude, range, height, and movement on the map or in text.







IsCatalogInMostPopularTable: catalog: 25777, numindb: 46
Update: records affected: 1



GetName: 25777 IRIDIUM 14 [+]

Hit Count: updated at: Sat, 15 Dec 2018 19:36:48 GMT